Weather History for KMEZ - March, 2013

Change the Weather History Date:

Monday, March 4, 2013

  Actual Average (KFSM) Record (KFSM)
Temperature  
Mean Temperature 64 °F -  
Max Temperature 77 °F 56 °F 84 °F (1938)
Min Temperature 51 °F 35 °F 11 °F (2002)
Degree Days  
Heating Degree Days 1    
Growing Degree Days 14 (Base 50)    
Moisture  
Dew Point 43 °F    
Average Humidity 52    
Maximum Humidity 77    
Minimum Humidity 29    
Precipitation  
Precipitation 0.00 in - - ()
Sea Level Pressure  
Sea Level Pressure 29.71 in    
Wind  
Wind Speed 8 mph (SSW)    
Max Wind Speed 15 mph    
Max Gust Speed 25 mph    
Visibility 10 miles    
Events Rain    
Averages and records for this station are not official NWS values.
T = Trace of Precipitation, MM = Missing Value Source: NWS Daily Summary

Daily Weather History Graph

Daily Weather History Graph

Search for Another Location

Airport or City:

Trip Planner

Search our weather history database for the weather conditions in past years. The results will help you decide how hot, cold, wet, or windy it might be!

Date:

Astronomy

Mar. 04, 2013 Rise Set
Actual Time 6:41 AM CST 6:15 PM CST
Civil Twilight 6:16 AM CST 6:40 PM CST
Nautical Twilight 5:47 AM CST 7:10 PM CST
Astronomical Twilight 5:18 AM CST 7:39 PM CST
Moon 12:41 AM CST (3/4) 11:08 AM CST (3/4)
Length of Visible Light 12h 24m
Length of Day
11h 33m
Waning Gibbous, 52% of the Moon is Illuminated
Mar 4
Waning Gibbous
Mar 4
Last Quarter
Mar 11
New
Mar 19
First Quarter
Mar 27
Full

Hourly Weather History & Observations

Time (CST) Temp. Dew Point Humidity Pressure Visibility Wind Dir Wind Speed Gust Speed Precip Events Conditions
12:15 AM 55.4 °F 30.2 °F 38% 29.85 in 10.0 mi South 9.2 mph 18.4 mph N/A   Clear
12:55 AM 55.4 °F 32.0 °F 41% 29.83 in 10.0 mi SSW 11.5 mph 21.9 mph N/A   Clear
1:15 AM 55.4 °F 32.0 °F 41% 29.83 in 10.0 mi South 9.2 mph 18.4 mph N/A   Clear
1:35 AM 55.4 °F 32.0 °F 41% 29.82 in 10.0 mi SSW 10.4 mph 24.2 mph N/A   Clear
1:55 AM 53.6 °F 32.0 °F 44% 29.81 in 10.0 mi South 10.4 mph 20.7 mph N/A   Clear
2:15 AM 55.4 °F 33.8 °F 44% 29.80 in 10.0 mi SSW 13.8 mph 23.0 mph N/A   Clear
2:35 AM 55.4 °F 33.8 °F 44% 29.80 in 10.0 mi SSW 6.9 mph 21.9 mph N/A   Clear
2:55 AM 53.6 °F 33.8 °F 47% 29.79 in 10.0 mi SSW 8.1 mph 21.9 mph N/A   Clear
3:15 AM 53.6 °F 33.8 °F 47% 29.79 in 10.0 mi SSW 15.0 mph 24.2 mph N/A   Clear
3:35 AM 53.6 °F 35.6 °F 51% 29.77 in 10.0 mi South 9.2 mph 19.6 mph N/A   Clear
4:15 AM 53.6 °F 35.6 °F 51% 29.78 in 10.0 mi South 8.1 mph 17.3 mph N/A   Clear
4:35 AM 53.6 °F 35.6 °F 51% 29.77 in 10.0 mi SSW 8.1 mph - N/A   Clear
5:15 AM 51.8 °F 37.4 °F 58% 29.77 in 10.0 mi SSW 5.8 mph - N/A   Clear
5:35 AM 51.8 °F 39.2 °F 62% 29.76 in 10.0 mi SSW 8.1 mph - N/A   Clear
5:55 AM 51.8 °F 39.2 °F 62% 29.76 in 10.0 mi Calm Calm - N/A   Clear
6:15 AM 51.8 °F 41.0 °F 67% 29.76 in 10.0 mi SSW 4.6 mph - N/A   Clear
6:35 AM 51.8 °F 41.0 °F 67% 29.76 in 10.0 mi SSW 9.2 mph - N/A   Scattered Clouds
6:55 AM 51.8 °F 42.8 °F 71% 29.75 in 10.0 mi South 8.1 mph 16.1 mph N/A   Scattered Clouds
7:15 AM 51.8 °F 42.8 °F 71% 29.74 in 10.0 mi SSW 8.1 mph - N/A   Mostly Cloudy
7:35 AM 51.8 °F 44.6 °F 76% 29.73 in 10.0 mi South 4.6 mph 20.7 mph N/A   Overcast
7:55 AM 51.8 °F 44.6 °F 76% 29.74 in 10.0 mi SSW 12.7 mph 20.7 mph N/A   Overcast
8:15 AM 53.6 °F 44.6 °F 72% 29.73 in 10.0 mi SSW 6.9 mph 18.4 mph N/A   Overcast
8:35 AM 53.6 °F 44.6 °F 72% 29.73 in 10.0 mi SSW 10.4 mph 25.3 mph N/A   Overcast
8:55 AM 53.6 °F 46.4 °F 77% 29.72 in 10.0 mi South 8.1 mph 20.7 mph N/A   Overcast
9:15 AM 53.6 °F 46.4 °F 77% 29.72 in 10.0 mi South 10.4 mph 23.0 mph N/A   Overcast
9:35 AM 53.6 °F 46.4 °F 77% 29.71 in 10.0 mi SSW 11.5 mph 21.9 mph N/A   Overcast
9:55 AM 55.4 °F 46.4 °F 72% 29.73 in 10.0 mi SSW 10.4 mph 18.4 mph N/A   Overcast
10:15 AM 55.4 °F 48.2 °F 77% 29.71 in 10.0 mi South 5.8 mph 16.1 mph N/A   Overcast
10:35 AM 55.4 °F 48.2 °F 77% 29.71 in 10.0 mi South 5.8 mph - N/A   Overcast
10:55 AM 55.4 °F 48.2 °F 77% 29.71 in 10.0 mi Calm Calm - N/A   Overcast
11:15 AM 59.0 °F 50.0 °F 72% 29.71 in 10.0 mi SSW 9.2 mph - N/A   Overcast
11:35 AM 59.0 °F 50.0 °F 72% 29.70 in 10.0 mi SSW 3.5 mph - N/A   Overcast
11:55 AM 59.0 °F 50.0 °F 72% 29.70 in 10.0 mi South 6.9 mph - N/A   Overcast
12:15 PM 60.8 °F 50.0 °F 68% 29.69 in 10.0 mi SSE 4.6 mph - N/A   Overcast
12:35 PM 62.6 °F 50.0 °F 63% 29.69 in 10.0 mi SSE 4.6 mph - N/A   Overcast
1:15 PM 68.0 °F 50.0 °F 52% 29.65 in 10.0 mi South 5.8 mph - N/A   Scattered Clouds
1:35 PM 69.8 °F 50.0 °F 49% 29.64 in 10.0 mi South 8.1 mph - N/A   Scattered Clouds
2:15 PM 71.6 °F 46.4 °F 41% 29.62 in 10.0 mi SSW 11.5 mph 19.6 mph N/A   Clear
2:35 PM 73.4 °F 44.6 °F 36% 29.63 in 10.0 mi SW 12.7 mph 19.6 mph N/A   Clear
2:55 PM 73.4 °F 44.6 °F 36% 29.63 in 10.0 mi SSW 6.9 mph 24.2 mph N/A   Clear
3:15 PM 75.2 °F 44.6 °F 34% 29.64 in 10.0 mi SSW 9.2 mph - N/A   Clear
3:35 PM 75.2 °F 44.6 °F 34% 29.63 in 10.0 mi WSW 10.4 mph 16.1 mph N/A   Clear
3:55 PM 77.0 °F 42.8 °F 29% 29.63 in 10.0 mi South 6.9 mph 18.4 mph N/A   Clear
4:15 PM 77.0 °F 42.8 °F 29% 29.63 in 10.0 mi SW 5.8 mph 17.3 mph N/A   Clear
4:35 PM 77.0 °F 42.8 °F 29% 29.63 in 10.0 mi SSW 4.6 mph - N/A   Clear
4:55 PM 75.2 °F 41.0 °F 29% 29.63 in 10.0 mi SSW 8.1 mph 19.6 mph N/A   Clear
5:15 PM 75.2 °F 41.0 °F 29% 29.64 in 10.0 mi SW 4.6 mph 16.1 mph N/A   Clear
5:35 PM 73.4 °F 41.0 °F 31% 29.64 in 10.0 mi SW 6.9 mph - N/A   Clear
5:55 PM 71.6 °F 41.0 °F 33% 29.65 in 10.0 mi Calm Calm - N/A   Clear
6:15 PM 71.6 °F 42.8 °F 35% 29.66 in 10.0 mi SW 9.2 mph - N/A   Clear
6:35 PM 71.6 °F 42.8 °F 35% 29.66 in 10.0 mi SW 3.5 mph - N/A   Clear
6:55 PM 68.0 °F 42.8 °F 40% 29.66 in 10.0 mi West 3.5 mph - N/A   Clear
7:15 PM 68.0 °F 42.8 °F 40% 29.67 in 10.0 mi WSW 3.5 mph - N/A   Clear
7:35 PM 68.0 °F 44.6 °F 43% 29.67 in 10.0 mi WSW 3.5 mph - N/A   Clear
7:55 PM 68.0 °F 42.8 °F 40% 29.68 in 10.0 mi SSW 3.5 mph - N/A   Clear
8:15 PM 68.0 °F 42.8 °F 40% 29.68 in 10.0 mi SSW 3.5 mph - N/A   Clear
8:35 PM 69.8 °F 44.6 °F 40% 29.69 in 10.0 mi SSW 5.8 mph - N/A   Clear
8:55 PM 69.8 °F 44.6 °F 40% 29.69 in 10.0 mi SSW 4.6 mph - N/A   Clear
9:15 PM 69.8 °F 46.4 °F 43% 29.70 in 10.0 mi SW 8.1 mph - N/A   Clear
9:35 PM 69.8 °F 46.4 °F 43% 29.70 in 10.0 mi SSW 8.1 mph - N/A   Clear
9:55 PM 69.8 °F 46.4 °F 43% 29.71 in 10.0 mi SW 4.6 mph - N/A   Clear
10:15 PM 66.2 °F 46.4 °F 49% 29.72 in 10.0 mi West 6.9 mph - N/A   Clear
10:35 PM 62.6 °F 46.4 °F 55% 29.73 in 10.0 mi West 3.5 mph - N/A   Clear
10:55 PM 62.6 °F 46.4 °F 55% 29.73 in 10.0 mi SW 3.5 mph - N/A   Clear
11:15 PM 62.6 °F 46.4 °F 55% 29.73 in 10.0 mi Calm Calm - N/A   Clear
11:35 PM 64.4 °F 46.4 °F 52% 29.74 in 10.0 mi Calm Calm - N/A   Clear
11:55 PM 60.8 °F 48.2 °F 63% 29.74 in 10.0 mi Calm Calm - N/A Rain Light Rain